Location: Frankfurt/Main
(50.1219°N, 8.6792°E)
Time: 02:44:46
(UTC+01:00)

ISS - Visible Passes

Search period start: 08 December 2021 00:00
Search period end: 18 December 2021 00:00
Orbit: 417 x 422 km, 51.6° (Epoch: 07 December)

Date Brightness Start Highest point End Pass type
(mag) Time Alt. Az. Time Alt. Az. Time Alt. Az.
08 Dec -0.7 18:04:18 10° W 18:06:23 15° SW 18:08:28 10° S visible
09 Dec -1.0 17:16:28 10° W 17:19:10 22° SW 17:21:53 10° SSE visible
11 Dec 0.3 17:20:38 10° SW 17:20:46 10° SW 17:20:53 10° SW visible
